GFSGL_850_rhum_096.txt.gz
RH
64 66 68 62 68 81 88 88 87 89 88 97 100 98 95 93 88 87 91 90 96 91 90 89 86 86 73 70 72 72 65 67 74 68 67 71 78 79 73 73 74 73 74
72 70 65 62 65 80 89 90 91 89 90 92 96 100 100 99 99 95 90 93 96 100 97 91 86 76 74 70 61 62 59 63 69 71 70 75 75 71 72 77 76 70 70
82 77 74 71 65 70 78 86 90 93 95 96 95 98 99 100 100 90 91 96 95 94 93 93 88 81 75 65 59 59 60 60 67 80 81 74 73 69 72 73 72 72 72
87 90 84 83 81 74 74 76 80 91 95 97 98 96 96 97 99 100 98 94 86 89 88 88 91 85 71 62 61 62 62 65 69 76 81 80 80 76 79 78 75 69 67
98 97 92 89 89 84 85 84 83 80 81 87 93 94 95 95 96 100 99 97 92 80 80 78 79 80 71 70 71 64 65 67 70 76 82 85 82 87 75 66 77 65 65
100 100 100 100 98 94 91 90 92 93 91 88 86 84 89 92 93 93 91 87 83 76 73 72 70 69 68 68 66 64 67 67 66 71 82 96 94 81 70 71 73 84 98
99 99 100 100 100 100 100 99 98 97 96 95 95 96 94 90 87 87 94 100 99 92 85 80 78 76 75 74 70 68 67 67 67 69 85 90 98 92 85 94 96 89 88
99 99 99 100 100 100 100 100 100 100 100 100 99 98 98 98 99 100 100 100 100 95 90 89 93 92 92 93 93 94 90 86 84 86 87 97 100 100 100 99 99 99 99
100 97 95 96 99 98 100 100 100 100 100 100 99 98 97 100 96 100 99 100 100 98 98 100 100 99 98 98 99 99 99 98 98 100 100 100 97 94 94 98 100 100 100
71 70 74 84 91 96 99 100 100 100 100 100 100 99 99 100 100 100 99 100 100 97 100 100 100 99 98 98 100 100 100 100 100 100 100 100 100 100 99 100 100 100 100
84 75 68 65 63 62 69 83 93 98 99 99 100 100 100 100 100 100 100 100 100 100 100 100 100 100 100 100 100 100 100 97 98 100 100 100 100 99 98 98 99 100 100
100 89 79 72 69 69 70 75 85 95 100 100 100 100 100 100 100 100 100 100 100 100 100 100 100 98 95 98 100 99 100 100 100 100 100 99 97 98 98 97 98 98 100
100 100 90 84 81 78 75 72 72 76 79 89 100 99 100 100 99 97 90 86 92 97 100 100 100 98 98 96 91 98 100 99 100 100 98 96 96 97 96 96 96 97 96
95 99 100 90 88 84 77 73 72 71 76 83 88 90 94 94 94 96 96 96 99 99 100 100 100 100 97 100 99 100 97 98 96 95 96 96 96 96 96 96 95 95 96
93 94 99 95 89 91 84 84 84 87 85 85 92 95 97 98 100 100 100 99 99 98 97 98 95 92 92 93 93 94 95 96 93 95 95 94 96 95 96 95 95 87 65
99 99 99 98 96 92 90 94 97 100 100 100 99 98 99 100 100 100 100 100 100 99 90 89 92 91 91 92 92 94 94 93 94 94 94 95 94 91 60 22 14 12 13
100 100 100 99 98 95 92 90 90 98 89 93 98 98 98 98 97 95 95 96 93 97 86 91 92 92 93 93 93 93 91 91 93 91 84 46 18 14 16 16 18 20 22
95 95 96 97 97 97 96 94 94 94 92 92 94 91 93 93 93 92 95 99 92 90 89 92 95 96 97 95 93 88 77 48 25 19 18 17 17 18 19 20 22 24 27
98 98 98 97 97 96 96 95 94 93 92 93 95 92 91 91 91 89 95 89 91 91 94 94 94 95 88 59 34 25 21 18 18 19 18 20 21 22 22 25 27 28 30
98 99 97 97 96 96 97 96 96 95 94 90 87 92 98 100 92 90 89 88 90 92 90 76 60 43 34 29 26 24 23 22 22 21 21 22 24 25 26 29 32 34 36
98 97 97 97 97 96 96 96 96 95 92 88 86 91 95 91 90 92 86 70 55 43 31 30 30 28 28 28 28 29 28 27 26 26 27 28 30 32 33 35 39 42 44
98 96 96 96 96 96 96 97 97 95 94 93 92 93 90 75 63 51 39 31 31 30 28 28 29 28 27 28 29 29 29 30 30 32 34 35 36 38 39 42 47 49 49
96 96 96 96 96 96 96 96 95 91 85 78 64 48 36 30 28 27 28 29 29 28 28 28 28 29 29 29 30 32 33 34 36 37 37 37 38 41 46 50 51 53 54
97 98 97 96 96 94 91 86 68 50 41 39 37 34 32 32 30 30 31 32 34 33 34 33 34 34 34 35 36 36 36 36 36 36 37 39 42 48 53 54 55 57 60
61 70 77 76 72 60 53 51 50 50 48 45 42 39 38 37 36 36 37 38 39 40 40 40 40 40 39 38 38 39 38 40 38 40 43 46 51 56 58 59 62 64 66
46 48 48 50 50 51 50 48 47 47 45 43 39 39 39 39 40 40 40 41 41 42 42 42 42 42 42 42 42 42 43 43 43 42 49 54 58 62 64 65 67 71 75

GFSGL_850_rhum_102.txt.gz
RH
100 90 78 78 89 93 93 68 72 75 96 95 97 99 99 99 99 100 99 100 100 100 100 100 100 100 100 92 87 95 82 69 71 67 65 76 78 70 64 64 62 65 64
100 95 92 88 90 89 94 76 75 77 89 98 98 98 98 99 100 99 99 98 98 99 100 100 99 100 91 97 89 97 100 92 91 84 65 62 76 85 94 92 66 60 67
99 100 93 88 91 95 96 95 78 82 84 93 98 90 85 86 85 82 86 87 86 90 98 99 100 98 98 98 86 82 87 86 84 79 75 80 85 84 87 93 98 98 65
100 100 97 85 96 97 96 94 87 87 95 92 95 88 85 85 80 84 83 82 83 85 87 83 80 81 78 79 80 80 90 81 74 84 82 79 84 81 80 80 87 88 93
100 100 99 93 94 88 86 86 91 92 93 97 99 99 96 90 88 87 85 86 93 87 85 84 84 82 84 87 92 95 94 89 86 98 100 96 80 84 84 80 85 85 83
100 100 100 100 100 100 90 84 90 90 96 99 100 100 100 100 100 95 94 97 92 98 100 93 87 90 100 98 91 86 96 100 100 100 100 100 92 91 88 87 88 91 92
100 100 100 100 100 100 97 100 99 97 99 100 99 100 100 100 99 98 100 100 100 99 96 96 96 98 100 99 99 90 88 86 91 91 97 98 99 98 98 95 93 94 96
100 100 100 100 100 99 98 100 100 100 100 100 100 100 100 99 99 100 100 100 100 100 100 100 99 100 100 100 100 100 99 95 96 94 98 98 99 95 96 99 99 100 100
99 100 100 100 100 99 99 100 100 100 100 100 100 100 100 100 100 98 95 100 100 100 100 99 99 100 99 100 100 100 100 100 100 100 100 100 100 100 100 100 99 100 99
87 85 97 100 99 100 100 100 99 100 100 100 100 100 99 100 99 99 94 93 99 99 100 99 99 100 99 100 100 100 100 100 100 100 100 100 100 100 100 100 100 100 100
89 79 79 82 86 82 100 100 100 99 100 100 99 100 100 100 99 99 98 99 100 100 100 100 100 100 100 99 100 100 99 100 100 100 100 100 99 99 99 98 96 96 98
94 86 83 84 80 75 82 100 100 99 100 100 100 99 100 100 99 97 91 93 100 100 100 100 100 100 97 91 88 89 92 100 100 100 100 99 100 97 93 89 85 82 84
99 95 92 89 84 80 77 76 85 88 93 98 98 99 98 96 92 85 83 91 96 99 100 100 98 87 84 86 99 99 100 100 100 100 99 96 93 93 92 88 86 86 87
99 97 98 93 85 81 77 80 75 81 83 86 91 95 96 95 97 99 93 91 95 93 98 94 91 89 90 96 98 96 94 93 91 89 88 89 90 88 84 84 85 87 80
98 96 94 92 91 89 84 80 83 84 87 89 93 92 92 93 97 95 91 88 88 89 87 86 84 84 84 85 85 85 85 84 82 88 90 89 88 84 76 65 61 64 59
100 98 98 97 100 100 95 92 87 88 89 90 91 89 90 93 93 90 89 90 89 88 82 80 82 84 83 85 82 81 80 80 82 84 80 72 55 42 36 29 36 54 60
100 100 100 100 100 100 100 100 94 95 88 87 89 88 88 89 89 92 94 90 86 82 79 91 95 97 97 95 87 80 68 56 40 34 29 27 28 24 52 66 80 81 72
98 97 97 97 96 96 96 99 100 100 97 95 90 89 90 92 93 94 92 88 83 80 90 96 98 100 96 83 66 48 25 18 14 15 16 16 26 59 54 58 61 80 75
95 97 99 99 100 100 100 100 100 100 100 100 100 98 97 97 96 94 91 83 87 95 99 98 98 92 76 52 28 20 18 17 17 19 17 18 22 52 38 59 48 24 71
93 95 96 98 98 98 98 99 99 98 95 93 91 92 96 96 93 88 84 80 69 60 58 45 38 31 26 22 20 20 21 20 20 21 21 23 29 56 70 75 74 98 78
99 95 95 96 95 95 96 96 96 97 95 93 91 92 93 94 88 73 49 34 36 47 44 39 26 24 26 23 26 23 22 23 22 24 31 31 28 53 57 60 77 86 56
96 96 95 95 96 94 93 92 92 92 92 92 88 84 74 57 39 28 25 22 22 22 22 23 22 22 22 23 23 25 25 26 26 27 29 30 36 41 57 61 92 100 99
98 99 99 96 94 94 93 93 93 92 79 62 47 33 26 23 23 23 22 22 22 22 23 25 26 27 27 28 29 29 30 30 30 30 32 34 39 65 68 100 87 100 84
85 96 98 94 95 100 95 74 52 39 37 39 34 30 27 26 26 26 27 27 28 28 29 31 32 32 32 32 33 33 34 34 34 35 36 38 44 53 68 83 100 64 100
79 90 88 95 96 89 91 79 70 59 55 52 48 39 35 32 32 32 33 34 34 35 35 36 36 36 36 36 36 36 37 39 38 37 41 45 49 54 58 76 64 100 85
58 68 86 99 99 100 100 100 91 69 60 47 42 40 39 38 38 38 39 39 40 41 42 42 42 41 41 39 38 37 37 38 40 42 42 47 53 64 72 80 81 95 100

GFSGL_850_rhum_105.txt.gz
RH
95 99 100 95 96 96 95 94 98 86 100 98 86 97 97 94 100 100 100 99 100 99 100 100 100 100 100 100 100 99 94 94 89 79 75 68 74 71 71 70 65 65 64
98 100 97 97 97 99 96 96 100 98 99 99 88 92 97 96 97 100 98 98 99 100 99 97 100 100 100 100 100 100 99 99 93 85 79 65 61 69 72 74 86 83 73
100 98 96 99 98 99 95 96 98 99 100 100 97 99 98 98 95 99 100 99 99 100 100 96 99 100 99 100 99 99 100 99 86 99 91 90 88 81 80 70 65 83 82
100 100 100 100 97 100 92 96 96 99 100 100 100 100 90 94 97 96 97 98 99 95 91 92 98 98 98 97 96 96 96 98 98 96 87 90 89 85 86 85 79 79 79
100 100 99 100 99 95 93 98 97 96 98 100 97 99 99 99 96 100 99 97 99 100 98 100 99 99 100 100 100 98 99 97 89 80 81 85 84 77 87 75 85 75 77
100 100 100 100 99 98 98 99 98 99 99 98 97 99 98 99 100 100 100 100 100 100 100 100 100 96 88 82 82 87 96 99 100 100 100 100 94 99 89 95 98 95 92
100 100 100 100 100 100 100 100 100 100 99 98 100 99 100 100 99 95 99 98 99 98 95 94 94 97 91 91 89 89 91 97 100 100 100 100 100 100 99 99 100 100 100
100 100 100 100 100 100 100 100 100 100 99 90 99 99 99 97 98 99 100 99 99 100 100 100 100 100 100 100 100 100 100 100 99 100 100 100 98 95 96 93 90 92 95
97 98 100 100 100 100 100 100 100 100 100 100 100 100 100 99 99 99 100 100 100 100 99 99 100 100 99 100 100 100 100 100 100 100 100 100 99 99 99 100 100 100 99
97 97 100 100 99 100 100 100 100 99 100 100 100 100 100 100 99 100 100 100 100 99 100 100 99 100 99 99 100 100 100 100 100 99 100 100 100 99 99 100 100 99 99
100 100 99 100 100 99 100 99 98 100 99 98 100 100 100 100 100 100 100 100 100 100 100 100 100 99 99 99 99 99 100 100 100 100 100 100 100 100 98 97 92 88 86
99 97 95 94 91 94 97 98 100 100 100 100 100 100 100 100 100 98 93 97 100 100 100 100 100 100 97 92 88 89 97 100 100 99 100 100 99 97 90 82 77 73 72
98 99 100 89 83 84 89 89 89 96 99 99 98 99 93 89 84 82 87 97 100 99 99 99 95 84 82 83 95 100 100 100 100 100 99 94 88 85 81 79 78 77 79
100 98 99 98 94 95 92 89 80 83 91 94 96 88 90 89 92 92 90 89 94 90 86 87 87 86 83 88 93 92 91 91 89 87 84 83 82 80 78 79 85 86 79
100 100 100 98 93 91 93 92 90 89 86 92 95 92 89 88 93 94 93 94 94 93 92 91 90 88 86 86 86 87 87 84 82 90 96 99 100 93 76 76 89 83 72
100 100 100 100 100 100 97 91 90 91 92 90 91 87 89 92 94 92 92 90 94 100 97 99 100 100 100 100 99 96 90 95 100 100 100 99 95 94 95 93 85 74 64
100 100 100 100 100 100 100 100 99 98 89 86 86 87 87 89 93 93 91 87 91 93 94 100 100 100 100 100 100 100 88 68 67 81 93 99 98 92 93 96 97 87 74
100 98 100 100 100 100 100 100 100 100 98 94 93 95 96 95 93 95 100 100 95 95 100 100 100 100 100 96 87 89 93 74 51 58 47 51 86 87 85 71 75 76 76
100 100 100 99 97 99 100 100 100 100 100 100 100 99 100 99 97 96 93 92 100 100 100 100 100 100 100 100 91 67 34 22 28 65 67 66 82 100 98 100 99 58 82
100 100 100 100 100 100 100 100 100 100 100 100 98 98 100 99 97 96 99 100 100 100 100 100 100 100 100 100 95 100 100 89 93 97 85 86 100 100 100 100 74 100 95
100 100 100 100 100 100 100 100 100 100 100 100 97 97 99 100 100 100 100 100 100 100 100 100 100 100 100 100 100 94 71 85 40 88 63 98 70 100 100 100 100 100 97
100 100 100 100 100 100 100 100 100 100 99 100 100 83 92 100 100 100 100 100 97 100 100 98 81 40 29 41 54 85 49 38 30 41 66 80 94 100 100 100 100 100 100
100 100 100 100 100 100 100 100 99 99 100 100 100 100 100 100 100 100 100 92 89 44 48 50 37 31 36 31 31 29 29 28 28 28 29 67 100 82 100 100 100 100 100
100 100 100 100 100 100 100 100 91 75 100 100 100 100 100 100 100 82 60 58 54 35 31 30 28 30 30 30 30 29 30 30 30 30 31 35 89 100 100 100 100 100 100
100 100 100 100 100 100 100 100 100 100 100 100 100 100 100 100 100 98 59 34 33 35 33 32 33 32 32 32 31 31 31 32 33 33 34 40 80 53 98 73 100 100 100
100 100 100 100 100 100 100 100 100 100 100 100 100 100 100 95 96 83 45 35 36 37 37 36 36 37 38 38 35 36 35 35 35 36 38 40 60 93 100 96 100 100 100

GFSGL_850_rhum_108.txt.gz
RH
54 74 85 89 79 88 87 85 82 84 82 71 98 97 93 99 100 100 99 96 100 99 100 100 99 94 93 99 100 98 95 94 92 85 77 79 76 73 80 79 76 69 66
77 80 84 84 86 95 90 90 88 83 73 76 98 100 100 100 100 97 96 99 99 99 100 100 100 100 100 99 97 100 100 99 100 97 86 84 76 71 69 70 73 75 78
92 88 88 87 93 98 92 95 95 80 93 97 98 100 99 96 98 99 95 99 99 99 99 100 100 100 100 100 99 100 100 100 100 100 96 88 81 71 70 75 78 75 74
92 93 97 97 97 100 93 94 97 99 98 98 98 98 98 99 99 97 100 100 100 100 100 99 100 98 99 100 100 99 100 100 100 100 100 97 87 78 84 90 87 83 80
100 100 100 100 100 100 98 97 98 99 99 98 99 99 97 97 98 98 97 96 99 98 97 98 100 100 100 97 96 98 98 94 93 93 99 100 99 94 91 80 90 84 88
100 100 100 100 100 100 100 95 94 97 98 99 99 99 100 99 97 99 98 100 99 98 96 98 98 96 100 99 99 100 98 100 100 100 94 95 94 90 92 94 98 100 100
100 100 100 100 100 100 100 96 99 100 100 99 99 100 100 100 100 98 99 100 99 100 100 100 99 100 100 100 100 100 100 100 100 100 100 100 100 98 98 99 100 100 100
100 100 100 100 100 100 100 100 100 98 100 100 100 99 99 97 96 94 95 97 98 99 100 100 100 100 100 100 100 100 100 100 100 100 100 100 100 100 100 100 100 98 100
99 100 97 98 100 100 100 100 100 100 100 100 100 100 100 100 94 98 100 99 98 99 94 94 100 99 98 100 100 100 100 100 99 100 100 100 100 99 100 100 99 100 100
99 100 99 99 98 97 96 100 100 100 100 100 100 100 100 99 100 100 100 100 100 100 100 100 100 100 99 99 100 100 100 100 100 100 100 100 99 100 99 99 100 98 98
100 100 99 100 100 97 97 99 100 99 100 100 100 100 98 99 99 100 100 100 100 100 100 100 100 100 100 99 100 100 99 100 100 100 100 100 99 100 98 97 93 89 86
100 100 99 100 100 99 98 98 98 100 100 99 100 92 96 98 96 100 99 100 99 100 100 100 98 99 95 93 93 96 100 100 100 99 100 99 99 96 87 78 73 70 70
98 99 100 100 100 100 99 100 97 92 95 97 95 99 100 95 88 99 98 100 100 100 100 99 94 86 87 88 98 100 100 100 100 99 97 92 85 79 75 75 75 76 76
99 95 96 98 99 99 100 99 97 98 96 87 86 86 94 97 95 92 96 98 97 96 98 98 96 91 86 93 95 94 94 94 91 88 86 86 83 78 77 78 75 80 66
100 100 100 96 93 94 94 96 95 97 99 99 99 96 98 96 99 100 99 98 99 100 100 98 90 84 84 86 87 92 95 97 98 100 100 100 94 74 62 64 67 62 43
99 98 99 100 100 96 92 92 93 94 93 94 94 94 95 98 100 100 100 100 100 100 93 98 100 100 100 98 88 85 84 85 88 87 82 73 61 66 56 49 55 50 50
100 100 99 97 97 100 99 96 95 98 93 95 99 100 100 100 100 100 100 100 100 93 86 99 100 100 96 92 88 80 63 65 62 56 52 62 66 58 57 52 67 77 63
100 100 100 100 100 99 97 97 99 99 97 99 100 100 99 98 97 99 98 91 87 88 92 94 92 89 82 75 71 66 56 47 37 33 33 41 58 51 53 40 26 43 64
97 99 100 100 100 100 100 100 99 98 99 100 100 99 99 98 97 95 93 85 87 87 88 86 88 89 82 78 84 53 38 35 39 37 32 37 60 60 50 70 89 86 73
100 98 97 98 98 100 99 98 100 97 95 95 96 96 100 97 92 90 88 84 80 83 82 69 67 71 78 71 67 80 55 52 57 55 41 41 55 79 88 84 71 81 68
95 96 99 100 100 100 99 98 100 98 92 95 96 96 96 93 92 87 75 76 78 80 82 69 62 56 59 67 56 45 38 31 32 44 43 46 81 81 96 85 96 100 100
99 97 98 98 97 97 100 99 98 99 100 99 96 88 98 91 86 73 64 65 64 62 69 57 39 33 33 37 43 40 30 26 29 32 36 65 95 94 99 100 92 95 97
100 96 98 97 96 97 96 96 97 98 96 99 100 97 90 90 89 77 66 57 41 42 36 36 30 30 32 30 26 28 27 27 24 26 29 42 72 73 85 99 100 95 80
98 96 99 100 94 98 100 99 98 91 100 100 100 100 100 100 93 72 65 65 51 42 34 30 31 31 30 30 28 29 29 29 30 30 31 33 39 54 64 80 86 96 100
99 100 97 98 96 99 98 99 99 100 100 100 100 100 100 100 100 88 56 44 40 37 34 36 35 34 33 31 33 32 31 31 32 33 34 38 38 60 84 81 95 82 92
99 99 100 100 99 99 99 100 98 100 100 100 100 100 100 98 100 93 62 48 44 49 47 38 40 41 39 36 38 37 37 36 36 37 38 39 39 46 54 66 75 76 87

GFSGL_850_rhum_114.txt.gz
RH
97 58 53 49 65 64 58 59 57 60 77 82 83 82 84 92 100 99 98 98 93 94 95 100 100 99 98 98 100 95 93 91 90 83 78 82 81 84 86 86 96 95 89
100 98 92 59 70 64 62 62 62 70 78 78 85 74 75 95 93 98 98 100 98 99 99 100 99 100 100 100 100 100 94 96 98 94 93 85 87 85 86 90 88 85 86
99 100 99 100 100 94 71 68 71 76 90 87 85 86 85 90 94 97 88 86 92 99 100 100 100 100 100 100 100 100 98 100 97 100 96 93 92 92 94 99 95 89 82
100 99 98 100 93 85 79 73 73 76 94 89 88 88 92 94 95 91 93 95 97 100 98 99 100 100 100 100 100 100 100 100 100 100 100 100 100 100 100 100 100 92 87
99 100 100 97 100 98 91 78 78 86 95 92 93 93 92 93 96 97 95 94 97 100 98 99 100 99 98 99 99 98 100 100 100 100 100 100 99 99 98 98 99 99 96
99 100 100 100 99 100 100 100 100 100 99 96 95 90 91 94 95 94 100 99 98 100 99 100 100 100 100 100 100 100 99 99 99 100 99 99 87 84 89 90 92 97 100
99 98 100 98 100 100 100 100 100 100 100 99 98 98 100 98 99 94 92 99 99 100 100 99 99 96 98 97 98 98 95 97 96 100 97 86 82 85 88 92 96 100 100
99 100 98 99 98 100 100 100 100 100 100 100 100 100 100 100 98 92 89 95 99 98 97 93 98 92 94 96 94 95 88 87 87 98 97 98 97 97 91 86 87 97 100
99 100 100 98 98 97 98 93 98 100 100 100 100 100 100 100 100 100 94 97 98 100 97 89 94 97 99 98 95 99 93 93 95 99 99 100 100 99 100 100 100 100 100
99 100 99 100 98 99 99 100 99 92 100 98 100 100 100 100 100 100 100 100 100 100 100 100 100 100 100 100 100 100 100 100 100 99 100 100 100 100 100 100 100 100 100
100 100 99 99 100 100 100 98 97 98 100 100 99 99 97 100 100 100 100 100 100 100 100 100 100 100 100 100 100 100 100 100 100 100 100 100 100 100 100 100 100 100 100
94 95 98 100 99 100 100 100 100 100 99 100 98 100 99 99 100 99 100 98 98 100 98 100 100 100 99 99 100 100 100 100 100 100 100 100 100 98 100 96 94 94 91
98 91 94 99 100 100 99 100 100 99 100 100 99 100 99 99 99 100 99 100 98 99 98 99 100 99 98 96 98 100 100 100 99 99 99 100 98 95 86 79 73 69 67
98 97 91 85 88 94 99 99 97 96 96 97 98 98 97 97 98 99 100 100 100 99 98 98 98 98 99 100 99 98 98 98 100 99 98 94 89 82 75 69 63 63 60
98 94 92 92 89 85 87 92 96 100 100 99 100 98 97 96 97 96 97 96 97 98 96 96 97 97 96 98 97 97 97 98 90 84 79 76 75 72 67 64 59 52 39
94 96 99 95 91 90 91 91 95 98 97 98 99 96 97 99 97 97 96 95 96 96 97 97 96 96 96 95 93 91 90 86 83 81 79 73 67 62 58 49 34 24 17
92 94 95 96 97 94 90 92 92 99 99 98 97 96 95 94 96 96 97 95 94 97 95 96 96 96 95 95 97 96 93 89 84 76 67 61 53 49 48 44 38 28 21
99 97 96 95 95 95 95 94 96 95 93 93 96 96 96 95 92 91 92 94 90 91 87 86 84 84 84 79 74 70 70 71 71 68 60 52 47 42 41 44 46 41 33
92 92 96 98 98 97 94 94 95 96 94 93 95 95 94 95 94 93 91 86 82 82 82 77 72 64 55 55 57 56 51 47 46 49 44 38 34 37 35 35 37 50 55
94 93 93 96 96 96 97 94 93 94 96 96 95 95 96 98 97 94 90 83 75 69 67 64 65 66 68 68 62 58 51 44 39 41 40 45 45 42 40 40 40 39 41
98 95 93 95 97 98 95 94 93 94 96 95 94 94 94 95 95 95 92 86 78 73 70 69 67 65 64 63 61 56 48 42 39 41 43 45 43 39 40 42 44 48 50
95 96 91 99 96 92 97 99 99 96 96 96 95 96 96 89 73 66 68 72 72 69 65 62 63 63 56 55 49 44 40 39 38 37 39 44 46 50 56 57 54 49 48
90 99 98 97 100 99 95 100 99 99 100 97 93 92 86 81 78 69 63 61 60 67 57 49 42 40 36 32 30 31 31 29 29 28 32 39 44 45 47 59 59 53 54
82 97 100 100 100 98 100 100 100 100 98 98 97 95 93 89 82 74 63 52 52 48 43 34 32 32 32 30 28 28 29 29 29 29 30 32 36 42 42 54 68 70 61
71 90 98 100 100 100 100 99 98 98 100 100 100 100 99 98 99 91 74 50 43 40 37 38 37 35 35 36 35 33 32 32 32 32 32 32 34 39 45 51 62 66 63
88 91 95 98 98 100 100 100 100 100 100 100 100 100 99 95 93 86 78 63 49 47 44 42 40 41 40 41 40 38 37 37 36 36 35 36 37 38 38 39 42 44 49

GFSGL_850_rhum_117.txt.gz
RH
99 98 90 62 54 47 58 62 56 63 61 61 60 72 81 90 99 99 98 93 95 99 99 98 99 99 100 100 100 100 99 91 86 88 88 80 77 67 64 76 74 76 82
100 100 98 99 89 92 64 58 62 60 64 64 64 68 80 88 94 99 96 90 92 99 99 99 100 94 99 100 100 100 96 94 91 88 83 82 79 72 77 80 85 90 88
100 100 100 100 100 100 100 79 67 67 66 69 70 76 83 87 92 98 89 88 91 93 92 90 98 99 100 100 99 99 99 100 96 94 87 87 95 92 91 87 90 93 90
100 100 100 99 99 100 100 100 95 78 75 69 72 74 99 88 81 89 84 88 94 92 90 91 96 100 100 100 96 100 100 100 100 100 100 99 96 97 98 98 98 92 99
100 99 99 100 99 100 100 100 100 99 82 76 77 81 97 91 88 90 90 88 90 95 98 100 100 100 100 94 98 100 100 100 100 100 100 100 100 99 99 98 100 100 100
97 99 100 100 99 100 99 100 100 100 100 98 89 97 100 93 92 95 90 90 90 97 100 100 100 94 94 100 100 96 94 100 99 100 100 100 99 99 100 99 100 100 100
99 100 95 98 99 99 99 100 100 100 100 99 100 100 100 100 95 94 88 94 96 98 99 99 93 98 100 100 99 100 100 100 99 98 98 99 99 95 93 94 93 97 100
94 98 99 99 100 100 92 95 99 98 100 100 100 100 100 100 97 94 95 100 94 95 92 88 100 99 100 99 99 100 100 99 95 95 99 99 99 96 90 91 92 97 100
97 97 99 99 100 100 99 99 99 96 93 98 99 98 100 100 100 100 100 100 100 95 96 100 100 97 93 96 94 92 90 92 95 86 82 82 89 91 98 100 100 100 100
97 100 100 99 100 100 99 99 100 99 100 99 98 98 98 100 100 100 100 100 100 100 100 94 98 98 94 93 95 100 98 98 97 96 100 100 100 100 100 100 100 100 100
90 93 93 95 99 100 100 99 99 100 100 100 99 98 97 96 99 99 100 100 100 100 100 100 100 100 100 100 100 100 100 100 100 100 100 100 100 100 100 100 100 100 100
88 84 87 93 96 98 99 100 100 99 99 100 100 100 100 99 99 98 100 100 100 100 97 100 99 100 100 100 100 100 100 100 100 100 100 100 100 99 100 100 100 99 100
87 87 86 82 84 90 91 92 94 96 98 97 96 97 99 98 98 99 100 99 99 100 100 98 98 100 100 99 99 100 100 100 100 100 100 99 99 99 100 99 99 99 99
92 89 89 86 85 83 86 88 90 92 95 96 96 97 96 96 97 97 97 98 98 98 98 100 98 99 99 99 98 98 99 100 99 99 100 99 99 98 96 91 76 62 62
89 93 91 89 88 90 91 92 96 100 100 99 97 94 93 94 96 96 96 97 97 97 98 98 98 98 98 98 98 98 98 98 98 97 98 96 87 77 72 68 62 58 51
85 88 92 93 91 89 93 96 97 100 99 98 100 100 100 100 97 98 98 96 96 96 96 96 96 97 97 96 96 96 96 96 95 89 80 76 71 68 67 59 42 30 22
88 89 88 87 89 92 92 93 95 96 95 95 95 95 95 96 97 96 98 97 92 99 96 96 95 96 96 96 96 96 96 96 96 96 95 90 74 57 46 39 32 24 18
84 87 89 92 93 92 91 93 94 94 95 94 94 95 95 95 93 92 90 94 88 86 86 88 90 91 92 92 91 91 91 90 88 83 74 59 55 52 44 37 35 34 30
81 83 87 92 93 95 93 90 92 95 97 97 97 96 96 96 96 96 95 88 85 83 83 76 70 66 71 74 69 61 57 57 52 49 41 39 39 38 34 40 42 44 44
66 78 84 90 92 94 94 91 89 95 97 96 95 95 96 99 96 94 94 92 84 74 70 68 69 70 69 66 62 58 50 45 47 50 48 46 44 45 45 49 50 46 40
69 75 80 84 91 88 95 96 95 94 96 96 94 93 92 93 90 87 83 79 74 70 70 70 69 68 67 68 68 64 56 53 51 50 54 51 45 42 40 42 43 42 38
73 85 91 87 91 91 91 100 100 99 96 92 87 84 83 74 71 64 62 64 67 65 62 57 57 62 59 55 49 44 43 42 43 43 45 47 47 46 48 50 46 39 38
50 71 94 96 94 94 97 99 98 98 97 96 94 89 84 78 76 68 61 58 57 54 57 52 47 44 40 36 34 33 34 32 31 32 37 43 51 52 50 50 47 45 44
41 54 85 100 100 100 95 96 96 95 96 98 99 98 97 94 88 78 66 54 48 46 40 41 40 37 35 32 30 30 30 30 30 30 31 32 34 37 37 38 39 36 38
55 74 82 90 98 100 100 100 97 100 100 100 98 97 99 99 97 89 78 65 52 51 47 44 41 38 37 36 35 33 31 31 31 31 31 31 32 33 34 36 37 39 41
65 79 91 92 95 98 100 100 100 100 100 99 100 100 100 100 100 100 88 77 61 54 52 48 46 45 43 41 40 38 37 35 34 34 34 35 36 37 38 38 39 41 42

GFSGL_850_rhum_120.txt.gz
RH
100 98 98 98 95 76 68 64 83 76 65 61 61 62 63 68 73 92 99 97 97 98 91 87 98 99 88 96 98 96 100 100 100 97 86 88 90 86 85 62 77 82 85
100 100 100 98 98 99 100 99 100 100 88 76 71 72 68 66 67 83 100 98 97 98 87 87 98 99 92 98 100 97 100 100 100 94 91 92 90 87 74 75 76 80 81
99 100 100 99 99 100 100 99 98 100 99 82 72 65 66 66 67 78 100 99 98 97 86 85 88 98 99 98 97 99 99 100 100 100 92 95 97 88 85 82 78 75 88
99 99 99 99 100 100 99 98 100 99 100 100 84 65 66 69 70 81 100 99 100 93 84 82 88 86 87 90 96 100 96 100 100 100 99 96 98 90 90 88 91 92 97
98 98 99 100 99 100 100 99 99 100 100 98 100 100 97 74 75 83 100 100 100 90 89 86 86 87 90 93 97 100 96 100 100 100 100 100 94 96 93 84 87 94 100
95 99 100 100 99 99 100 99 99 100 100 100 100 100 100 100 100 99 97 95 88 82 83 86 88 92 96 100 100 99 100 98 100 100 100 99 99 98 99 99 94 100 100
99 99 96 98 100 99 97 95 96 98 99 100 100 100 100 100 100 100 98 98 92 84 83 78 93 93 96 99 99 98 100 100 98 98 100 100 100 99 100 100 100 100 100
94 99 99 99 98 97 98 99 98 98 97 98 96 99 100 100 100 100 100 100 97 98 100 100 100 99 100 87 99 100 100 100 100 100 100 98 94 97 100 98 100 100 100
91 97 98 97 99 99 96 98 99 99 99 99 99 98 99 99 99 100 100 100 100 100 100 100 100 100 100 100 99 97 100 99 99 98 100 97 95 100 99 100 100 100 100
85 91 95 95 95 99 100 100 100 100 100 100 100 100 99 94 93 98 100 100 100 100 100 100 100 100 100 100 100 100 100 98 94 92 99 100 100 100 100 100 100 100 100
88 85 83 88 96 99 100 98 99 99 99 100 99 99 99 100 99 98 98 99 95 100 100 100 100 100 100 100 100 100 100 100 100 100 100 100 100 100 100 100 100 100 100
85 82 82 83 83 87 90 92 94 92 92 94 98 97 96 97 98 98 99 98 99 100 100 100 99 100 99 100 100 100 100 100 100 100 100 100 100 100 100 100 100 100 100
84 82 79 78 82 82 80 83 84 86 89 92 92 92 94 97 97 97 98 97 98 99 99 99 100 99 99 100 100 100 100 99 99 100 100 100 100 100 100 100 100 100 100
78 79 80 79 80 82 84 88 87 88 91 92 91 91 90 89 91 96 99 99 97 97 98 98 98 98 100 98 98 99 99 99 99 99 98 98 98 98 99 99 99 99 99
79 80 82 85 86 87 90 91 96 100 100 97 98 97 95 92 98 97 95 91 94 97 96 97 97 97 98 97 97 97 97 97 97 97 97 97 96 97 95 86 66 56 62
76 81 87 86 88 86 86 91 94 96 98 97 96 96 98 99 96 92 92 94 95 97 97 95 95 95 96 96 96 96 96 96 96 96 96 96 96 96 96 93 84 66 39
72 74 77 80 83 84 85 86 86 95 96 95 94 94 94 94 91 91 90 93 93 98 92 96 95 95 95 95 95 96 96 95 96 95 95 96 96 95 95 80 48 26 19
56 59 62 79 87 87 84 84 88 92 93 91 91 95 93 92 92 94 92 91 80 77 80 85 90 92 93 94 94 95 95 96 96 96 96 95 95 94 85 53 34 26 25
51 49 54 59 75 87 88 87 87 92 94 93 91 89 90 94 99 96 95 88 81 72 69 65 62 58 58 59 58 57 61 61 60 56 50 45 40 41 39 40 39 36 33
47 55 61 62 64 74 80 90 90 90 91 90 86 85 81 86 84 86 89 90 84 74 65 64 66 66 63 60 57 52 47 45 45 46 45 46 44 44 41 41 39 36 32
44 42 52 64 65 73 82 91 95 93 90 89 83 77 75 66 63 61 59 62 64 63 61 62 65 64 58 54 52 51 48 45 44 44 44 40 35 33 33 33 31 31 31
38 33 38 64 80 80 85 93 95 95 95 94 92 88 84 72 65 61 57 53 57 64 62 56 51 51 49 47 42 37 36 37 38 39 40 40 42 40 39 37 34 30 30
31 36 46 65 82 90 93 96 96 96 95 95 95 95 95 88 81 67 57 53 51 49 45 43 45 43 38 32 30 31 31 30 33 36 40 39 41 42 38 38 36 35 34
39 43 59 71 84 94 98 97 96 96 97 96 96 97 96 95 94 88 74 60 54 49 45 43 41 37 34 32 31 30 29 30 30 31 33 34 37 40 38 39 41 41 43
47 52 64 74 80 90 97 100 100 99 98 99 100 100 99 100 99 98 88 75 62 62 59 53 49 45 41 38 38 37 35 34 33 33 33 34 35 36 37 41 42 46 49
63 60 73 87 89 87 96 99 100 99 96 98 100 100 100 100 100 99 94 86 80 71 61 56 54 49 47 47 44 42 41 39 37 36 37 38 40 40 40 41 41 43 45

GFSGL_850_rhum_123.txt.gz
RH
100 99 100 100 99 99 98 92 84 87 100 98 95 84 72 61 54 59 63 69 84 94 91 91 96 96 96 96 99 95 99 100 99 100 100 98 100 93 90 84 85 79 61
98 98 99 100 100 100 99 99 99 100 99 99 100 100 90 63 59 64 65 71 80 91 94 95 100 100 79 94 99 93 97 93 97 100 99 100 94 88 92 91 90 90 83
100 100 100 100 99 100 100 100 100 99 99 100 99 99 93 82 75 70 70 68 68 84 92 98 100 90 80 91 96 97 98 97 97 100 100 100 98 97 99 98 100 78 70
95 96 98 99 99 99 100 100 100 100 100 100 100 100 99 100 100 100 89 79 71 76 96 98 100 84 82 87 99 100 100 99 99 100 100 100 100 99 98 98 90 84 87
94 95 95 97 97 99 100 99 100 100 100 100 100 100 100 100 99 98 99 100 100 92 100 100 97 85 82 85 87 89 94 99 100 99 100 100 99 97 96 90 91 84 87
98 98 96 97 96 95 96 95 98 98 100 100 100 99 100 100 100 99 98 100 100 100 100 100 90 81 81 86 83 86 91 94 100 96 99 100 99 95 96 96 98 100 100
94 96 97 97 96 97 98 98 96 99 99 97 100 100 100 100 99 100 93 100 100 100 100 100 84 81 84 86 87 98 98 98 100 99 96 95 100 94 97 97 100 100 99
88 89 90 92 94 98 100 100 99 99 98 98 99 100 99 98 96 96 99 100 100 99 100 100 99 91 95 97 96 100 97 100 98 100 100 99 95 98 100 94 99 100 100
79 82 90 90 89 92 94 98 98 99 99 99 99 97 98 98 99 96 99 100 99 100 100 100 100 100 99 100 99 100 97 98 100 100 94 99 100 99 100 100 98 99 100
78 80 78 82 88 92 92 94 96 96 96 95 96 95 95 95 98 100 100 99 100 97 100 100 100 100 99 100 95 100 96 99 100 99 100 100 100 100 100 100 100 100 100
77 73 71 74 76 81 84 85 87 86 85 86 89 92 92 92 94 91 93 97 100 100 96 98 100 100 100 100 100 100 99 100 100 100 100 100 100 100 100 100 100 100 100
77 74 71 74 75 76 76 76 78 78 79 80 81 82 87 91 93 94 93 95 98 98 98 99 100 96 97 100 98 100 100 100 100 100 100 100 100 100 100 100 100 100 100
67 69 74 74 75 77 74 75 75 78 81 82 83 82 80 82 86 91 97 96 95 96 97 98 98 98 99 100 97 99 100 99 100 100 100 100 100 100 100 100 100 100 100
69 71 72 75 75 73 75 80 82 84 87 88 88 87 88 84 80 81 83 88 95 95 96 96 96 97 98 97 97 98 98 99 99 99 100 99 99 99 98 99 99 98 99
73 72 70 76 76 79 83 82 86 90 93 92 91 92 91 89 92 89 88 88 91 96 96 97 97 97 97 97 97 96 97 97 97 97 97 97 97 97 97 97 97 97 97
60 64 69 72 74 75 76 83 87 86 87 85 85 85 88 90 87 86 83 86 93 95 94 92 93 95 95 97 97 96 96 96 96 96 96 96 96 96 96 96 95 96 95
51 51 52 56 64 70 73 74 76 84 84 80 79 80 83 82 84 89 87 87 82 85 85 92 93 95 96 96 96 96 95 95 96 95 96 95 96 96 96 95 95 96 96
39 43 47 54 63 68 71 74 78 77 78 78 80 80 80 80 86 90 90 91 80 70 63 69 76 80 84 90 94 95 96 96 96 95 95 96 96 95 95 94 93 87 84
28 29 34 46 61 73 76 80 80 76 74 72 69 65 66 74 85 88 88 84 82 76 69 62 61 57 51 48 52 55 56 54 53 51 48 54 66 59 54 46 39 31 30
23 23 23 31 47 62 75 84 83 81 76 71 64 56 46 42 46 53 60 67 70 70 71 71 67 64 61 59 56 52 51 50 49 45 45 48 49 47 43 42 40 38 33
18 18 21 30 47 68 84 89 92 91 86 83 80 79 76 61 54 52 53 54 64 67 62 62 67 67 62 58 58 56 54 53 52 50 46 40 40 37 36 35 32 30 29
24 26 28 35 48 64 81 90 94 95 94 92 89 86 82 72 65 58 55 56 56 58 66 62 55 47 43 43 44 43 47 49 51 49 50 51 50 45 42 37 32 30 30
29 30 34 40 45 58 74 89 96 96 97 98 97 95 90 87 83 77 67 59 56 54 53 48 45 42 36 32 32 35 38 41 46 49 51 51 51 48 45 41 38 35 33
38 37 39 44 52 60 69 78 89 96 98 98 99 99 98 97 94 89 85 76 66 61 56 51 47 44 42 40 36 32 32 33 35 38 41 41 41 41 39 40 39 37 36
52 53 55 58 64 70 74 79 83 88 91 92 96 99 100 100 99 94 92 89 81 71 64 59 54 49 45 43 42 39 36 35 34 35 35 35 35 34 35 37 38 40 40
68 69 69 75 80 85 89 88 87 86 89 94 97 98 97 98 98 98 97 94 94 89 78 65 58 54 50 47 44 43 42 40 38 37 38 38 38 38 39 39 39 40 41

GFSGL_850_rhum_126.txt.gz
RH
99 96 99 92 93 90 70 59 56 82 52 90 98 98 98 99 99 99 86 76 78 66 56 64 79 98 99 97 90 92 92 92 98 100 94 87 94 95 93 100 100 97 97
100 100 100 92 96 95 86 85 79 84 99 100 100 98 98 99 99 100 98 82 77 74 64 69 96 98 97 95 97 96 95 83 100 94 99 92 94 98 98 100 99 100 99
99 97 99 98 99 98 98 98 98 100 100 100 100 99 100 100 100 100 100 98 81 76 75 80 71 96 100 97 100 99 80 88 96 96 97 86 99 99 100 100 92 89 86
90 94 99 97 99 100 100 100 100 100 100 100 100 100 100 100 100 100 99 100 100 100 97 92 84 96 99 99 100 92 80 89 92 99 98 99 100 99 100 94 91 92 95
99 100 100 100 99 95 93 96 98 98 99 100 100 100 100 100 100 99 100 100 100 97 99 100 99 100 94 98 100 78 86 92 95 99 98 100 100 100 99 92 97 100 100
98 100 100 100 96 96 96 96 93 92 91 94 98 100 97 98 100 99 99 96 100 100 99 98 100 100 100 100 97 80 81 97 98 100 96 99 98 100 100 99 99 100 100
92 91 92 94 94 94 90 88 88 90 91 91 92 91 94 95 93 93 99 100 100 100 100 99 99 100 99 100 96 87 94 94 95 99 100 96 94 91 99 100 100 100 95
78 83 89 91 89 89 86 86 88 87 85 85 88 89 89 94 98 99 100 100 98 100 100 100 100 100 100 98 100 96 93 96 100 100 100 98 98 99 99 99 99 100 100
77 75 74 78 81 82 84 83 83 82 81 82 83 83 84 88 90 98 98 98 100 100 100 100 100 100 97 92 100 99 98 100 99 100 100 100 100 100 100 100 100 100 100
76 72 73 73 74 76 76 77 78 77 78 79 80 81 82 85 87 85 86 91 97 99 100 99 93 97 100 100 100 100 100 100 100 100 97 100 100 100 100 100 100 100 100
82 68 63 62 65 68 68 68 69 70 70 70 72 74 76 79 82 87 89 89 93 96 98 96 98 99 95 96 100 100 100 100 100 100 100 100 100 100 100 100 100 100 100
76 87 75 63 60 61 61 61 61 62 66 69 68 70 72 72 75 78 84 90 91 90 91 96 98 100 97 94 96 100 99 100 100 100 100 100 100 100 100 100 100 100 100
81 70 88 59 67 70 55 58 70 72 89 96 98 83 76 70 69 70 77 85 89 93 99 100 100 100 99 99 98 98 99 99 99 99 100 100 100 100 100 100 100 100 100
77 84 87 87 87 94 95 85 77 70 81 96 88 88 83 75 70 70 71 74 81 89 95 99 99 98 98 100 98 97 98 98 98 98 99 98 100 100 100 100 100 99 100
74 79 82 87 85 85 97 89 91 88 88 87 89 97 96 89 84 83 79 76 84 92 94 93 91 92 93 94 96 97 97 97 96 96 96 96 97 97 97 97 98 98 98
76 83 85 92 93 91 92 94 97 74 75 76 79 80 84 82 79 78 78 78 76 79 89 92 97 98 98 99 96 96 96 96 96 96 96 96 96 96 96 97 96 97 96
96 67 93 93 94 98 100 100 100 100 100 81 66 68 70 74 77 80 81 83 82 72 87 100 100 100 100 98 98 98 96 95 96 96 95 95 96 96 96 96 96 96 96
57 48 95 100 100 100 100 100 100 100 100 100 96 48 42 49 60 72 77 86 96 98 100 100 100 100 100 100 100 100 96 96 96 95 96 95 95 95 95 96 96 96 95
30 27 56 100 100 100 100 100 100 100 100 100 100 87 47 46 55 52 57 94 100 100 100 100 100 100 100 100 100 100 100 94 98 100 99 98 97 96 95 96 95 95 95
60 30 28 100 100 100 100 100 100 100 100 100 100 100 60 100 100 100 100 100 100 100 100 100 100 100 96 100 100 100 100 100 100 100 100 100 100 100 100 100 99 92 92
61 87 64 100 100 100 100 100 100 100 100 100 100 99 81 100 100 100 100 100 100 100 100 100 87 59 70 82 100 100 100 100 100 100 100 100 100 100 100 100 85 86 89
67 80 100 100 100 100 100 100 100 100 100 100 100 100 100 100 100 100 100 100 100 100 100 100 100 57 39 38 46 58 87 77 69 88 100 100 100 100 100 100 100 99 92
97 96 100 100 100 100 100 100 100 100 100 100 100 100 100 100 100 100 100 100 100 100 66 59 51 47 42 36 34 35 40 49 55 57 79 100 100 100 100 100 100 100 90
100 100 100 100 100 100 100 100 100 100 100 100 100 100 100 100 100 100 100 100 100 100 91 64 54 49 47 44 40 37 35 36 39 44 48 89 100 98 100 100 100 86 76
100 100 100 100 100 100 100 100 100 100 100 100 100 100 100 100 100 100 100 100 100 100 100 81 58 53 49 48 46 42 39 38 37 39 41 78 56 57 90 100 99 100 82
100 100 100 100 100 100 100 100 100 100 100 100 100 100 100 100 100 100 100 100 100 100 100 100 78 60 58 54 50 48 46 43 41 39 39 67 84 97 100 75 58 100 94

GFSGL_850_rhum_132.txt.gz
RH
99 100 100 100 100 99 99 96 100 97 92 95 99 99 99 98 99 100 99 100 100 96 97 93 97 94 91 83 83 81 78 83 87 77 86 81 84 83 77 78 78 83 84
100 100 100 100 100 98 100 96 98 96 98 100 97 99 99 100 100 99 99 100 100 100 100 99 99 99 98 98 96 98 98 93 88 89 86 89 92 85 84 83 78 89 84
99 100 100 100 100 100 100 100 100 99 100 100 98 98 99 99 100 99 99 99 99 100 99 98 100 99 99 98 99 92 86 99 97 98 59 85 97 98 92 98 89 87 87
100 100 100 98 99 96 89 89 90 92 90 89 86 84 90 94 98 100 99 100 100 99 100 100 100 99 99 99 100 99 99 100 100 100 95 88 100 100 100 94 87 91 84
96 96 96 98 100 100 86 86 84 76 81 84 88 90 81 81 91 91 92 93 94 99 100 99 100 100 100 100 100 99 100 100 100 100 100 100 100 99 99 90 93 90 87
89 93 95 98 97 96 87 82 76 71 68 69 68 68 70 80 84 77 91 94 97 99 95 91 97 100 100 100 100 100 100 100 100 99 89 99 98 98 99 85 100 98 100
69 71 77 89 78 75 75 74 68 66 64 65 64 65 70 75 79 78 77 84 82 89 86 88 91 94 92 90 93 97 99 100 100 100 100 100 98 99 100 97 99 94 92
38 37 41 44 43 53 55 53 55 52 60 63 60 59 60 63 63 68 72 75 76 78 80 83 85 85 84 87 84 86 87 92 95 100 100 99 100 100 99 93 99 88 99
38 30 31 25 26 27 29 34 40 45 51 57 59 55 57 60 61 59 58 62 70 73 76 76 75 74 73 75 81 84 84 85 98 99 100 100 100 100 98 97 99 100 100
80 58 58 41 25 22 21 24 32 31 34 37 40 39 43 46 51 53 55 58 60 69 73 74 75 79 78 76 76 81 85 92 88 86 92 100 100 100 100 100 100 99 99
78 66 70 72 60 37 27 23 23 25 22 23 26 28 29 33 36 44 55 62 67 68 77 81 84 87 86 84 86 87 95 98 100 100 99 98 98 100 100 100 100 100 100
51 68 54 72 71 53 23 15 11 11 12 14 15 17 20 24 30 36 44 53 57 65 85 99 95 93 89 88 85 87 86 89 91 94 96 97 95 97 99 100 100 100 100
62 57 71 60 71 70 56 39 29 19 18 21 22 25 24 23 22 26 34 45 57 64 81 100 94 95 92 91 90 87 85 85 86 86 92 94 96 96 97 99 98 99 99
62 67 75 77 75 78 78 87 75 60 54 50 42 32 29 31 32 33 34 44 57 67 91 96 93 92 96 94 91 91 91 93 95 94 94 96 98 98 96 97 98 99 99
48 71 56 74 78 82 89 91 91 88 90 94 93 92 72 94 100 100 87 93 100 92 99 94 92 95 100 96 97 98 93 94 93 93 92 94 94 95 96 95 96 97 98
52 40 88 92 90 92 91 93 99 100 97 94 99 92 83 50 100 100 91 100 100 94 95 98 96 95 95 100 95 96 97 94 98 99 94 94 95 95 96 96 96 95 96
58 20 66 92 94 81 94 91 87 79 81 83 100 87 88 52 100 100 100 99 100 81 81 100 96 96 97 97 96 96 98 97 98 96 98 96 95 96 96 96 96 96 96
56 26 19 76 98 86 91 88 87 86 85 84 82 93 83 65 96 100 100 64 62 90 92 99 100 95 97 99 99 99 96 94 95 97 95 96 97 95 95 95 96 96 96
67 52 36 66 94 93 89 84 86 86 85 90 87 83 79 74 97 100 100 94 96 99 98 96 99 100 97 98 100 100 100 95 97 95 97 95 96 97 95 96 96 95 96
63 86 61 77 92 86 89 89 87 90 88 86 89 99 92 85 88 88 92 98 97 100 100 100 100 100 100 100 100 100 100 97 95 96 95 97 96 96 96 95 96 96 95
62 81 79 88 92 94 92 83 98 92 90 91 92 90 100 89 98 93 93 96 95 100 100 100 100 100 98 87 100 100 100 98 84 97 97 95 97 97 96 96 95 96 97
80 84 88 94 96 95 90 96 96 87 91 92 87 89 90 88 92 92 96 96 96 98 100 100 100 100 100 78 92 81 65 51 57 83 100 97 97 97 98 95 95 93 96
70 90 94 95 93 98 91 94 92 92 94 91 90 90 90 94 92 90 93 98 97 95 100 100 100 100 98 84 69 59 47 41 41 58 97 98 100 100 100 97 91 75 88
93 98 96 96 94 93 95 91 90 92 93 92 89 91 90 93 93 92 93 96 98 96 96 99 100 100 96 90 74 70 55 47 44 59 94 98 95 95 100 100 100 97 84
98 96 96 92 91 90 90 91 91 91 92 92 94 95 90 92 94 92 95 92 92 100 100 94 100 100 100 100 92 86 65 54 50 49 92 99 100 100 99 89 100 97 84
97 97 92 92 93 91 94 92 91 92 90 92 92 92 92 94 95 92 100 92 99 97 95 100 100 100 100 100 100 83 61 53 53 55 74 89 93 85 100 90 99 100 94

GFSGL_850_rhum_135.txt.gz
RH
98 98 96 100 100 100 100 95 89 98 98 98 99 96 100 98 99 100 93 99 100 100 100 100 100 100 98 92 89 89 97 89 92 85 78 81 86 76 76 79 82 80 75
97 98 97 98 99 100 100 100 98 100 100 100 99 85 99 100 100 100 98 98 99 98 95 100 100 100 100 99 100 100 97 99 94 100 79 66 69 82 72 81 81 81 83
94 96 98 100 100 100 100 99 97 99 98 97 98 99 99 99 97 94 93 97 100 100 99 98 99 100 100 100 99 100 99 100 99 92 88 72 77 89 83 95 93 92 92
98 97 98 97 100 96 94 95 90 95 91 86 87 84 87 88 88 87 87 90 93 96 99 100 99 100 98 99 99 100 99 99 100 100 95 100 100 98 99 100 100 89 94
98 93 97 92 98 87 75 76 76 75 74 76 80 85 85 86 86 85 88 90 87 88 91 95 98 99 98 98 96 93 94 97 100 99 99 100 94 100 99 96 90 97 92
48 79 94 88 64 81 68 58 56 56 57 59 63 67 72 78 80 77 75 75 78 78 78 82 81 82 87 89 98 100 94 98 100 100 100 100 100 100 88 75 92 100 100
36 36 41 46 37 56 45 35 36 36 39 39 42 45 46 50 52 53 55 59 62 62 62 65 66 64 64 67 69 79 95 100 100 93 99 99 99 100 100 100 100 90 99
44 35 26 23 26 30 27 24 25 29 29 27 27 28 29 32 34 33 33 33 40 48 53 54 58 56 57 58 63 66 70 81 90 98 99 100 100 97 97 100 99 100 100
52 51 38 21 16 16 18 21 22 21 20 18 18 20 20 18 17 14 17 20 25 33 42 54 61 62 65 60 59 60 63 67 78 91 91 97 96 99 100 97 99 100 100
70 74 58 35 27 14 11 10 11 12 12 11 10 11 13 16 16 18 16 17 20 27 30 34 44 58 68 76 74 74 73 74 78 77 81 86 92 96 97 100 100 100 100
62 68 67 56 35 30 21 14 10 10 9 8 9 9 10 12 16 20 24 33 45 46 42 41 44 72 70 72 78 80 86 87 80 79 78 79 83 91 97 100 100 100 100
56 55 70 76 68 49 37 29 18 14 11 10 8 7 7 8 8 10 14 20 31 45 60 83 66 68 66 75 80 85 82 78 78 79 80 80 81 83 85 91 98 100 100
31 33 38 44 44 34 24 20 16 13 14 15 12 11 11 8 7 7 9 11 16 34 50 61 64 71 71 69 74 80 80 82 85 84 87 90 93 91 90 88 95 99 99
25 34 42 48 56 69 82 66 52 43 38 37 40 60 54 37 81 88 67 75 51 42 41 42 48 52 59 65 68 75 82 88 92 94 91 88 87 88 88 89 89 90 93
15 21 29 31 36 55 73 79 84 90 98 93 94 92 86 70 100 100 100 100 100 83 65 47 39 38 46 60 70 77 79 85 86 93 92 90 87 89 92 94 94 94 96
11 21 39 49 43 47 48 52 78 88 99 99 90 89 75 62 85 100 100 60 84 57 47 60 68 64 60 77 83 81 83 87 97 89 95 94 98 94 95 95 98 98 96
21 16 14 17 24 26 36 50 64 66 71 80 98 81 81 78 100 100 100 64 48 47 58 84 100 97 78 72 85 93 90 87 98 96 88 98 96 95 94 94 95 97 96
18 22 17 34 59 76 79 74 74 84 82 82 83 81 77 74 97 100 100 62 48 52 66 76 84 98 86 79 77 88 94 86 90 99 97 92 96 98 94 94 94 95 96
28 24 28 44 62 69 72 79 76 91 92 89 89 82 77 81 83 95 86 82 83 78 78 84 85 84 78 74 69 69 81 82 89 100 98 99 92 98 97 95 96 95 96
23 31 44 46 59 77 80 62 78 90 84 90 94 92 84 83 80 86 90 92 93 90 88 92 96 90 84 72 58 55 52 52 55 92 98 96 96 97 98 97 96 96 95
24 34 33 57 90 89 80 78 90 95 87 93 89 86 87 91 93 91 87 93 98 100 94 92 100 96 89 76 62 53 48 43 44 70 100 98 98 95 97 96 97 96 96
24 25 51 78 86 87 88 86 92 86 91 93 91 88 86 88 93 97 94 94 97 100 100 94 94 97 99 93 77 63 51 45 42 50 98 99 97 95 99 96 94 96 96
25 51 83 90 94 91 88 89 87 86 87 86 88 90 91 92 88 94 98 95 97 98 94 99 99 99 100 100 90 81 71 57 49 56 86 94 89 94 100 100 97 96 96
38 74 96 93 90 87 86 86 87 85 84 84 85 86 87 86 88 96 99 94 95 95 88 99 91 99 100 100 98 89 84 69 56 53 82 100 98 95 100 96 95 84 93
48 63 90 93 90 89 87 86 88 89 92 94 97 92 94 93 88 89 90 96 99 92 97 100 92 91 99 100 100 99 93 64 57 55 67 99 90 92 100 100 100 90 81
61 68 92 90 89 88 85 86 89 90 91 95 91 92 93 93 98 92 92 94 93 100 100 96 94 91 98 100 99 97 91 60 52 59 64 64 70 85 100 99 99 100 97

GFSGL_850_rhum_141.txt.gz
RH
96 94 97 99 97 96 100 99 99 98 100 100 100 99 100 97 87 80 100 99 98 92 99 94 90 94 98 89 89 85 98 100 100 99 98 100 98 96 72 68 74 81 77
96 95 97 98 98 97 95 97 96 99 99 100 100 100 100 100 100 99 97 100 97 96 93 84 91 96 94 83 98 92 100 99 99 100 97 95 87 88 80 98 94 80 82
98 96 93 100 98 97 97 95 96 96 100 100 100 100 100 100 99 100 100 100 99 98 97 97 98 100 100 88 98 100 97 92 94 96 98 98 99 100 98 99 93 84 88
54 55 52 56 64 96 97 96 95 96 100 99 96 99 99 100 100 99 95 96 99 98 97 95 95 96 97 94 95 91 88 83 83 86 87 87 91 91 100 100 98 94 93
25 26 30 32 32 29 26 33 39 39 40 35 68 48 47 44 50 59 70 75 79 80 80 81 81 76 71 68 68 64 62 62 64 69 76 83 83 80 84 90 98 98 92
12 14 18 17 15 10 12 12 13 12 11 10 12 15 13 13 12 9 9 10 11 16 15 18 20 26 32 39 43 48 44 47 54 61 67 72 76 86 91 93 94 94 91
11 10 10 10 9 9 8 8 8 7 6 7 7 8 11 14 14 13 10 9 9 8 8 8 7 8 8 13 19 27 35 43 47 55 70 78 81 85 85 80 86 96 99
18 13 14 12 10 8 8 8 8 7 7 8 10 12 10 10 8 7 8 7 7 9 9 10 10 10 9 7 11 13 18 28 40 51 68 77 80 81 82 82 86 88 84
28 22 17 15 13 11 9 8 8 7 7 7 7 7 8 19 9 6 6 6 7 8 9 8 9 10 12 10 11 11 12 17 24 44 58 64 69 73 76 74 68 71 74
33 30 23 19 15 14 13 10 9 8 9 8 8 8 7 9 15 7 6 6 7 7 8 10 11 16 17 19 18 21 25 37 39 31 34 41 49 54 60 68 76 82 89
32 28 24 21 21 21 20 16 14 10 8 7 7 9 11 8 8 7 6 6 7 7 7 7 9 11 14 17 24 28 42 51 48 46 45 48 45 46 50 61 72 83 91
32 28 29 27 26 24 22 21 18 15 11 11 10 10 12 14 12 9 8 8 9 9 10 13 14 14 17 21 25 35 43 44 44 48 53 55 59 60 60 59 64 71 81
28 28 30 32 29 25 20 18 16 14 14 15 18 21 26 16 11 11 10 10 10 10 11 14 14 13 13 15 21 26 29 32 40 47 56 63 70 72 68 64 57 61 61
32 32 32 25 25 23 24 24 25 27 34 37 34 45 65 85 100 70 24 12 12 11 11 11 11 11 12 13 13 18 24 28 43 57 66 69 67 62 66 71 72 67 64
27 24 22 24 28 34 39 46 58 93 98 88 75 59 54 80 100 100 90 90 39 25 20 14 12 11 10 11 13 15 19 23 24 30 56 73 73 71 68 72 74 77 81
19 23 26 34 35 40 47 49 60 78 98 96 93 82 70 93 97 100 86 44 37 31 23 21 20 21 22 22 20 19 21 23 27 28 35 81 88 86 80 72 73 80 87
16 19 26 31 32 35 31 24 25 41 42 43 56 58 90 100 100 95 33 35 32 27 26 30 32 33 34 37 37 35 30 30 32 30 30 72 95 94 91 85 79 83 82
13 13 20 25 27 30 26 23 25 22 25 25 33 42 44 53 60 72 69 56 44 50 54 53 48 42 41 39 38 38 35 32 31 32 32 48 93 96 93 91 87 86 84
17 19 18 21 29 31 30 33 40 54 56 57 50 49 54 58 64 60 57 56 61 65 68 74 72 73 70 62 62 59 56 50 46 42 39 46 83 96 92 92 90 85 88
15 14 16 22 30 34 42 48 56 66 67 70 71 70 64 57 58 61 62 64 72 76 77 76 73 70 75 72 68 66 59 59 55 52 45 46 80 96 93 92 96 96 92
15 17 22 29 38 51 63 68 74 77 77 74 75 77 81 82 82 82 79 76 74 73 74 75 78 77 81 77 76 80 76 79 74 66 53 50 56 80 90 88 94 95 92
17 21 30 42 48 71 78 79 80 78 78 74 72 73 81 85 84 88 92 86 82 78 77 83 83 84 88 82 79 87 91 89 82 73 56 52 54 70 88 82 81 93 93
27 32 36 45 64 82 82 82 78 78 76 75 80 76 75 78 80 81 96 96 94 94 85 86 81 80 87 77 77 89 93 89 94 87 54 51 60 65 72 77 79 95 99
54 53 50 52 75 85 81 83 86 88 90 91 91 87 88 90 87 78 80 100 94 100 94 89 88 86 85 72 71 81 85 92 95 87 58 56 70 78 79 82 90 99 100
72 69 65 69 83 88 89 86 82 100 100 97 99 100 100 98 94 89 82 81 84 100 99 97 98 87 89 80 76 81 87 90 93 95 77 59 65 72 77 86 94 98 97
90 87 84 83 82 83 84 87 93 97 100 100 100 100 100 100 99 100 99 95 91 91 100 100 100 100 100 99 92 90 96 96 95 96 90 71 59 59 80 92 98 100 100

GFSGL_850_rhum_144.txt.gz
RH
91 95 92 93 93 95 98 98 99 100 100 98 99 100 100 100 100 99 100 100 100 100 100 99 100 100 100 100 95 96 90 86 95 95 99 100 99 100 99 98 96 89 79
52 60 94 96 96 97 98 98 98 97 98 98 99 98 100 100 100 100 100 100 100 100 97 100 100 100 97 97 88 98 96 88 76 84 97 85 100 99 92 85 78 91 98
18 19 29 59 96 99 99 98 98 97 98 96 95 98 100 99 100 100 100 99 100 98 98 97 100 100 100 100 100 100 100 99 91 85 92 92 100 100 99 99 97 97 95
12 11 12 14 20 25 43 79 94 95 96 97 98 96 99 96 98 100 99 100 100 99 99 98 98 98 96 95 96 96 99 95 93 88 90 92 90 87 84 83 84 96 97
10 9 10 11 10 12 13 14 16 22 18 27 17 19 14 20 32 42 56 60 60 63 68 71 72 67 59 58 62 66 72 73 68 66 72 73 68 62 61 63 66 68 72
10 9 10 9 9 9 10 10 10 13 16 12 12 12 21 14 9 14 10 11 11 11 11 14 15 21 22 28 24 25 25 31 31 36 35 35 43 45 45 45 46 45 43
14 13 11 9 8 8 8 8 8 8 12 11 10 10 10 8 7 6 7 7 6 6 7 6 5 8 13 15 19 19 20 24 30 37 43 51 52 52 46 41 51 51 45
15 15 13 12 10 9 8 8 9 9 9 6 9 6 5 6 6 6 6 7 7 7 7 9 7 6 6 8 9 10 14 16 24 32 40 50 54 54 52 52 54 52 40
19 18 17 15 13 11 9 8 9 7 8 11 10 9 7 7 6 6 6 7 7 8 8 7 8 8 7 7 7 7 11 13 18 26 36 45 50 50 48 44 38 42 46
22 21 22 21 18 16 14 11 9 8 9 9 9 9 9 8 7 6 6 6 7 8 8 8 10 12 12 11 12 14 16 20 15 14 18 24 28 34 41 46 54 61 73
25 22 21 21 21 21 19 18 14 12 12 12 12 17 15 13 14 9 8 8 8 7 7 8 9 10 10 11 13 16 24 29 25 26 25 22 24 26 26 36 51 61 65
26 24 24 24 24 23 22 20 17 13 11 12 14 16 17 19 13 12 11 10 10 9 10 11 12 11 10 10 9 12 16 17 18 20 24 31 35 37 40 43 50 50 57
24 25 26 29 28 26 23 21 19 16 12 12 16 20 23 20 17 14 15 14 12 12 13 12 11 10 10 10 11 11 11 11 13 16 20 26 40 51 60 55 48 49 45
23 25 27 27 30 28 26 24 24 23 21 20 18 27 44 59 57 17 12 12 12 12 13 13 12 12 12 12 11 11 12 14 17 19 20 23 27 31 43 58 61 60 57
23 25 28 28 28 28 27 27 42 66 69 55 45 47 60 77 100 100 64 40 21 19 19 16 14 13 13 13 14 14 14 15 16 19 20 23 27 37 45 62 66 67 68
22 23 23 23 24 26 26 28 36 38 40 47 38 58 58 79 84 86 44 39 35 31 28 27 28 28 27 25 22 20 20 20 21 23 24 27 30 46 61 63 71 72 70
20 19 18 18 21 25 26 25 26 36 34 33 30 29 31 45 52 52 32 32 33 33 34 39 43 44 44 45 41 36 33 34 34 36 36 34 35 44 66 73 76 73 67
18 15 15 14 21 25 27 29 29 25 24 26 32 34 40 45 48 51 48 45 40 43 47 49 49 52 58 62 62 61 58 46 42 44 46 44 42 52 68 80 82 84 82
20 21 20 21 24 27 35 36 31 33 35 36 38 42 43 55 61 66 64 65 65 64 61 62 66 67 67 67 65 60 63 65 56 46 45 48 47 49 63 79 80 79 83
23 22 24 29 31 36 41 40 43 47 54 58 59 61 61 63 66 67 72 76 75 76 77 73 75 73 74 71 64 62 65 67 61 54 51 50 47 49 56 69 78 77 76
17 23 29 34 39 42 48 53 59 64 65 66 67 72 75 73 75 78 77 77 89 89 87 85 77 72 72 71 66 60 64 72 75 73 67 57 48 50 60 62 71 72 73
21 26 28 31 39 49 62 67 73 70 73 77 80 82 83 83 87 89 85 78 77 96 97 100 91 82 78 77 76 70 65 74 80 82 78 66 50 56 71 70 69 70 76
29 38 44 40 40 54 72 79 79 84 88 91 92 88 90 94 95 93 90 87 76 72 87 97 100 99 93 88 84 84 80 82 88 89 88 84 68 58 66 65 70 79 89
52 58 49 48 52 61 74 82 82 80 84 86 92 96 97 98 97 92 89 82 76 82 86 88 100 100 100 100 96 94 94 94 99 97 96 92 85 68 58 57 76 88 96
78 68 63 62 63 68 73 78 83 88 92 92 94 99 99 93 85 76 70 73 77 85 92 97 95 100 100 100 100 100 100 100 100 100 97 96 90 81 69 70 83 94 99
90 82 82 85 88 91 94 96 96 93 95 98 97 81 65 60 56 54 52 54 58 62 67 72 85 99 100 100 100 100 100 100 96 94 97 97 94 89 78 74 80 98 100

GFSGL_850_rhum_147.txt.gz
RH
14 42 86 88 92 91 94 98 99 97 97 100 100 100 98 99 99 99 100 100 100 100 99 100 100 100 91 89 79 79 96 100 84 98 97 87 95 98 100 95 98 98 92
11 10 18 52 88 91 95 96 96 98 98 99 100 98 99 100 96 99 100 100 100 100 100 100 100 100 100 100 91 86 94 98 97 100 100 100 100 100 100 100 100 99 100
8 9 11 12 13 22 46 79 93 99 100 98 99 97 95 96 98 98 100 100 100 100 100 100 100 100 98 96 97 100 100 100 100 97 100 100 100 98 96 99 95 98 99
7 8 8 10 10 13 12 10 13 14 17 22 36 41 68 96 97 95 97 98 100 95 98 100 100 100 100 100 100 100 100 100 100 97 99 100 100 99 96 90 89 86 88
8 8 8 8 8 8 8 7 10 10 6 8 10 10 13 18 28 31 29 37 38 37 32 43 53 45 43 45 45 62 84 94 92 91 91 92 91 90 89 85 81 61 35
9 9 8 8 7 7 7 6 7 9 9 7 7 7 7 14 17 12 9 9 10 7 10 21 20 17 15 14 11 15 14 19 26 27 31 34 33 28 24 25 24 26 20
11 10 9 8 8 8 8 6 5 7 6 6 7 7 8 8 6 4 5 4 4 5 5 9 10 13 18 18 18 18 15 13 15 20 21 26 30 35 31 26 24 23 27
15 14 12 11 9 8 8 8 9 8 8 9 9 7 6 6 5 6 5 6 5 4 4 5 4 5 8 10 14 14 14 14 22 24 27 32 30 28 29 29 28 22 14
20 19 17 15 13 10 9 8 9 14 14 12 12 13 14 9 7 6 6 6 6 6 6 6 6 6 6 8 8 10 11 14 23 31 32 36 37 33 27 21 18 23 15
24 23 22 21 18 16 13 10 9 9 10 15 12 10 11 9 8 7 7 7 7 7 8 8 8 8 7 6 6 6 7 10 11 13 16 17 19 23 25 27 30 33 49
26 25 23 22 23 23 20 16 14 13 11 10 12 13 12 12 11 9 8 8 9 9 9 10 10 10 9 8 8 9 11 12 11 12 13 15 16 18 21 31 43 48 54
26 25 23 22 22 23 23 22 18 15 14 14 16 20 16 13 10 10 10 10 11 10 12 12 13 12 11 10 10 10 10 9 9 9 10 11 13 16 21 29 34 39 47
24 22 22 22 21 21 22 24 22 19 17 22 20 23 49 36 22 17 17 15 15 14 16 16 15 14 13 12 12 12 11 11 11 11 12 13 16 21 27 25 29 29 30
24 23 23 22 23 23 23 24 25 28 22 19 22 32 62 72 27 17 16 17 17 18 18 17 16 15 14 15 16 16 16 16 16 16 16 16 16 15 21 33 35 37 36
24 23 22 22 23 24 24 27 31 33 29 34 32 43 92 99 98 63 25 20 20 22 22 18 17 17 18 19 21 22 23 22 21 21 20 20 19 18 18 23 37 60 98
24 22 21 21 23 24 26 28 29 27 26 25 32 41 52 76 88 85 40 38 34 32 30 30 32 33 34 34 33 33 33 33 34 32 28 27 26 25 24 24 48 94 100
22 22 22 21 23 24 25 27 28 28 27 26 27 31 35 34 36 48 38 39 40 37 41 63 80 86 100 100 96 72 59 48 46 47 43 36 32 29 31 42 64 90 96
20 18 20 21 23 25 26 30 29 30 33 35 37 36 40 42 46 46 42 41 47 54 61 87 94 96 100 100 100 84 54 54 60 56 53 47 42 38 37 48 76 94 89
22 23 24 24 28 28 32 34 36 39 43 44 45 47 47 50 51 55 56 58 59 82 99 100 100 100 100 97 81 58 53 58 56 62 90 70 54 46 44 70 99 90 82
27 28 26 32 38 40 42 45 50 54 56 56 58 63 63 64 75 70 74 76 75 96 100 100 100 100 100 80 72 88 61 65 59 71 82 92 77 58 68 91 100 100 100
30 32 35 37 43 46 50 59 63 65 64 66 71 79 81 84 87 90 90 86 82 80 75 80 100 100 100 100 100 100 72 68 66 64 76 77 77 74 82 100 100 100 100
25 35 42 45 47 50 63 74 75 73 74 79 81 83 90 96 98 98 94 83 75 72 74 85 89 94 100 100 100 100 93 84 79 88 77 78 82 90 100 100 100 100 100
30 35 42 51 50 52 66 82 85 84 86 90 92 93 93 94 94 90 75 66 66 67 73 79 87 88 100 100 100 100 100 100 98 88 88 83 86 95 97 100 100 100 100
44 58 65 57 56 62 69 75 80 85 92 94 95 93 93 92 78 59 57 57 57 56 58 60 71 86 98 99 100 100 100 100 100 98 96 89 89 92 92 87 86 100 100
65 79 75 70 72 78 86 93 96 97 95 91 90 85 69 51 47 45 46 48 49 52 54 56 59 62 65 74 98 100 100 100 100 100 100 92 88 92 94 92 85 81 100
88 91 83 84 89 94 96 96 94 91 88 73 54 43 42 42 44 46 49 52 53 55 56 58 60 62 64 69 75 78 78 81 99 100 100 99 89 88 96 94 84 89 100